Chillicothe, MO

5:41 AM CDT on April 23, 2018 (GMT -0500)
Chillicothe

Weather History for KCDJ - April, 2013

Change the Weather History Date:

Friday, April 12, 2013

  Actual Average (KIRK) Record (KIRK)
Temperature  
Mean Temperature 40 °F -  
Max Temperature 46 °F 62 °F 87 °F (1925)
Min Temperature 35 °F 41 °F 15 °F (1957)
Degree Days  
Heating Degree Days 25    
Moisture  
Dew Point 29 °F    
Average Humidity 68    
Maximum Humidity 82    
Minimum Humidity 58    
Precipitation  
Precipitation 0.00 in - - ()
Sea Level Pressure  
Sea Level Pressure 29.90 in    
Wind  
Wind Speed 7 mph (WNW)    
Max Wind Speed 13 mph    
Max Gust Speed 22 mph    
Averages and records for this station are not official NWS values.
T = Trace of Precipitation, MM = Missing Value Source: NWS Daily Summary

Daily Weather History Graph

Daily Weather History Graph

Search for Another Location

Airport or City:

Astronomy

Apr. 12, 2013 Rise Set
Actual Time 6:40 AM CDT 7:49 PM CDT
Civil Twilight 6:13 AM CDT 8:17 PM CDT
Nautical Twilight 5:39 AM CDT 8:50 PM CDT
Astronomical Twilight 5:05 AM CDT 9:25 PM CDT
Moon 7:51 AM CDT (4/12) 10:20 PM CDT (4/12)
Length of Visible Light 14h 04m
Length of Day
13h 09m
Waxing Crescent, 5% of the Moon is Illuminated
Apr 12
Waxing Crescent
Apr 18
First Quarter
Apr 25
Full
May 2
Last Quarter
May 9
New

Hourly Weather History & Observations

Time (CDT) Temp. Windchill Dew Point Humidity Pressure Visibility Wind Dir Wind Speed Gust Speed Precip Events Conditions
12:52 AM 37.9 °F 32.7 °F 28.9 °F 70% 29.76 in - WSW 6.9 mph - N/A   Unknown
1:52 AM 37.9 °F 32.7 °F 28.0 °F 68% 29.77 in - West 6.9 mph - N/A   Unknown
2:52 AM 37.0 °F 31.6 °F 28.0 °F 70% 29.77 in - West 6.9 mph - N/A   Unknown
3:52 AM 37.0 °F 29.8 °F 27.0 °F 67% 29.77 in - West 10.4 mph 20.7 mph N/A   Unknown
4:52 AM 36.0 °F 29.6 °F 27.0 °F 70% 29.77 in - West 8.1 mph - N/A   Unknown
5:52 AM 36.0 °F 29.0 °F 26.1 °F 67% 29.80 in - West 9.2 mph - N/A   Unknown
6:52 AM 35.1 °F 28.6 °F 26.1 °F 70% 29.81 in - West 8.1 mph 17.3 mph N/A   Unknown
7:52 AM 36.0 °F 30.3 °F 27.0 °F 70% 29.83 in - Variable 6.9 mph - N/A   Unknown
8:52 AM 36.0 °F 29.6 °F 28.0 °F 73% 29.86 in - West 8.1 mph 18.4 mph N/A   Unknown
9:52 AM 37.0 °F 28.9 °F 28.9 °F 73% 29.88 in - West 12.7 mph 18.4 mph N/A   Unknown
10:52 AM 39.0 °F 31.8 °F 30.0 °F 70% 29.90 in - WNW 11.5 mph 18.4 mph N/A   Unknown
11:52 AM 39.9 °F 33.9 °F 30.9 °F 70% 29.93 in - WNW 9.2 mph 18.4 mph N/A   Unknown
12:52 PM 41.0 °F 35.2 °F 30.0 °F 65% 29.94 in - WNW 9.2 mph 21.9 mph N/A   Unknown
1:52 PM 41.0 °F 37.1 °F 30.9 °F 67% 29.95 in - Variable 5.8 mph 16.1 mph N/A   Unknown
2:52 PM 42.1 °F 36.1 °F 30.9 °F 65% 29.97 in - WNW 10.4 mph - N/A   Unknown
3:52 PM 43.0 °F 38.2 °F 30.0 °F 60% 29.97 in - West 8.1 mph - N/A   Unknown
4:52 PM 44.1 °F 39.0 °F 30.0 °F 58% 29.97 in - WNW 9.2 mph - N/A   Unknown
5:52 PM 45.0 °F 41.2 °F 30.9 °F 58% 29.98 in - WNW 6.9 mph - N/A   Unknown
6:52 PM 45.0 °F 41.8 °F 30.9 °F 58% 29.98 in - NW 5.8 mph - N/A   Unknown
7:52 PM 43.0 °F - 30.9 °F 62% 29.98 in - Calm Calm - N/A   Unknown
8:52 PM 37.0 °F - 32.0 °F 82% 30.01 in - Calm Calm - N/A   Unknown
9:52 PM 37.0 °F - 32.0 °F 82% 30.02 in - Calm Calm - N/A   Unknown
10:52 PM 39.9 °F 35.1 °F 30.0 °F 68% 30.04 in - NW 6.9 mph - N/A   Unknown
11:52 PM 39.0 °F 35.7 °F 28.9 °F 67% 30.05 in - Variable 4.6 mph - N/A   Unknown